Time,TemperatureF,DewpointF,PressureIn,WindDirection,WindDirectionDegrees,WindSpeedMPH,WindSpeedGustMPH,Humidity,HourlyPrecipIn,Conditions,Clouds,dailyrainin,SoftwareType,DateUTC
2013-11-30 00:22:00,28.0,20.0,30.30,SSW,198,4.0,8.0,72,0.00,,,0.00,,2013-11-30 06:22:00,
2013-11-30 00:42:00,28.0,20.0,30.30,South,191,1.0,6.0,72,0.00,,,0.00,,2013-11-30 06:42:00,
2013-11-30 00:52:00,28.0,20.0,30.29,South,173,2.0,6.0,72,0.00,,,0.00,,2013-11-30 06:52:00,
2013-11-30 01:21:00,27.0,19.0,30.27,South,175,2.0,7.0,72,0.00,,,0.00,,2013-11-30 07:21:00,
2013-11-30 01:42:00,27.0,19.0,30.27,South,174,3.0,8.0,72,0.00,,,0.00,,2013-11-30 07:42:00,
2013-11-30 01:52:00,27.0,19.0,30.26,SSE,163,2.0,6.0,72,0.00,,,0.00,,2013-11-30 07:52:00,
2013-11-30 02:22:00,28.0,20.0,30.25,South,173,4.0,6.0,71,0.00,,,0.00,,2013-11-30 08:22:00,
2013-11-30 02:42:00,28.0,20.0,30.25,South,187,3.0,7.0,71,0.00,,,0.00,,2013-11-30 08:42:00,
2013-11-30 02:52:00,28.0,20.0,30.24,South,180,2.0,8.0,71,0.00,,,0.00,,2013-11-30 08:52:00,
2013-11-30 03:21:00,28.0,20.0,30.23,South,182,2.0,6.0,71,0.00,,,0.00,,2013-11-30 09:21:00,
2013-11-30 03:43:00,28.0,20.0,30.22,South,190,3.0,7.0,71,0.00,,,0.00,,2013-11-30 09:43:00,
2013-11-30 03:53:00,28.0,20.0,30.22,South,171,0.0,6.0,71,0.00,,,0.00,,2013-11-30 09:53:00,
2013-11-30 04:23:00,27.0,19.0,30.20,SSE,166,0.0,1.0,71,0.00,,,0.00,,2013-11-30 10:23:00,
2013-11-30 04:53:00,27.0,19.0,30.20,South,171,0.0,5.0,70,0.00,,,0.00,,2013-11-30 10:53:00,
2013-11-30 05:22:00,27.0,18.0,30.18,South,188,0.0,4.0,69,0.00,,,0.00,,2013-11-30 11:22:00,
2013-11-30 05:42:00,27.0,19.0,30.17,South,173,1.0,5.0,70,0.00,,,0.00,,2013-11-30 11:42:00,
2013-11-30 05:52:00,27.0,19.0,30.17,South,182,0.0,7.0,70,0.00,,,0.00,,2013-11-30 11:52:00,
2013-11-30 06:22:00,27.0,18.0,30.16,SSE,165,1.0,2.0,69,0.00,,,0.00,,2013-11-30 12:22:00,
2013-11-30 06:42:00,27.0,18.0,30.16,South,172,1.0,4.0,69,0.00,,,0.00,,2013-11-30 12:42:00,
2013-11-30 06:52:00,27.0,18.0,30.16,SSE,167,3.0,6.0,69,0.00,,,0.00,,2013-11-30 12:52:00,
2013-11-30 07:11:00,28.0,19.0,30.15,South,174,1.0,6.0,69,0.00,,,0.00,,2013-11-30 13:11:00,
2013-11-30 07:21:00,28.0,19.0,30.15,SSE,168,1.0,6.0,69,0.00,,,0.00,,2013-11-30 13:21:00,
2013-11-30 07:42:00,28.0,19.0,30.15,SSW,193,3.0,8.0,68,0.00,,,0.00,,2013-11-30 13:42:00,
2013-11-30 07:52:00,28.0,19.0,30.14,South,177,1.0,7.0,68,0.00,,,0.00,,2013-11-30 13:52:00,
2013-11-30 08:12:00,29.0,20.0,30.14,SSW,195,3.0,7.0,68,0.00,,,0.00,,2013-11-30 14:12:00,
2013-11-30 08:22:00,29.0,20.0,30.14,South,186,4.0,9.0,68,0.00,,,0.00,,2013-11-30 14:22:00,
2013-11-30 08:42:00,29.0,20.0,30.14,South,188,5.0,8.0,68,0.00,,,0.00,,2013-11-30 14:42:00,
2013-11-30 08:52:00,29.0,20.0,30.13,SSW,192,5.0,7.0,68,0.00,,,0.00,,2013-11-30 14:52:00,
2013-11-30 09:21:00,31.0,22.0,30.11,SSE,159,7.0,12.0,68,0.00,,,0.00,,2013-11-30 15:21:00,
2013-11-30 09:43:00,32.0,23.0,30.11,South,182,11.0,15.0,69,0.00,,,0.00,,2013-11-30 15:43:00,
2013-11-30 09:54:00,34.0,25.0,30.11,SSW,195,10.0,16.0,70,0.00,,,0.00,,2013-11-30 15:54:00,
2013-11-30 10:13:00,35.0,27.0,30.11,South,187,5.0,15.0,71,0.00,,,0.00,,2013-11-30 16:13:00,
2013-11-30 10:23:00,35.0,27.0,30.10,SW,228,5.0,13.0,71,0.00,,,0.00,,2013-11-30 16:23:00,
2013-11-30 10:42:00,36.0,28.0,30.10,South,183,6.0,13.0,71,0.00,,,0.00,,2013-11-30 16:42:00,
2013-11-30 10:52:00,36.0,28.0,30.09,South,180,7.0,15.0,71,0.00,,,0.00,,2013-11-30 16:52:00,
2013-11-30 11:22:00,39.0,30.0,30.08,West,271,3.0,12.0,70,0.01,,,0.01,,2013-11-30 17:22:00,
2013-11-30 11:42:00,39.0,30.0,30.08,SSW,192,9.0,12.0,69,0.01,,,0.01,,2013-11-30 17:42:00,
2013-11-30 11:53:00,39.0,30.0,30.06,South,190,7.0,13.0,69,0.01,,,0.01,,2013-11-30 17:53:00,
2013-11-30 12:21:00,41.0,31.0,30.04,South,180,5.0,9.0,68,-99.99,,,-99.99,,2013-11-30 18:21:00,
2013-11-30 12:42:00,40.0,30.0,30.03,SE,144,5.0,10.0,68,-99.99,,,-99.99,,2013-11-30 18:42:00,
2013-11-30 12:52:00,40.0,31.0,30.03,SSW,198,6.0,12.0,69,-99.99,,,-99.99,,2013-11-30 18:52:00,
2013-11-30 13:21:00,41.0,31.0,30.01,South,180,7.0,16.0,68,0.00,,,-99.99,,2013-11-30 19:21:00,
2013-11-30 13:42:00,42.0,32.0,30.01,South,191,8.0,13.0,67,0.00,,,-99.99,,2013-11-30 19:42:00,
2013-11-30 13:52:00,42.0,32.0,30.00,West,277,7.0,16.0,67,0.00,,,-99.99,,2013-11-30 19:52:00,
2013-11-30 14:22:00,42.0,31.0,30.00,SSW,199,7.0,11.0,66,0.00,,,-99.99,,2013-11-30 20:22:00,
2013-11-30 14:42:00,42.0,31.0,29.99,SSW,207,3.0,11.0,66,0.00,,,-99.99,,2013-11-30 20:42:00,
2013-11-30 14:52:00,42.0,32.0,29.99,SW,218,5.0,12.0,67,0.00,,,-99.99,,2013-11-30 20:52:00,
2013-11-30 15:21:00,42.0,32.0,29.99,SSW,198,6.0,11.0,67,-99.99,,,-99.99,,2013-11-30 21:21:00,
2013-11-30 15:53:00,42.0,32.0,29.99,SSW,199,2.0,9.0,68,-99.99,,,-99.99,,2013-11-30 21:53:00,
2013-11-30 16:12:00,41.0,32.0,29.99,South,186,4.0,7.0,69,-99.99,,,-99.99,,2013-11-30 22:12:00,
2013-11-30 16:23:00,41.0,32.0,29.99,SSW,192,5.0,9.0,70,0.00,,,-99.99,,2013-11-30 22:23:00,
2013-11-30 16:42:00,40.0,31.0,29.99,SSW,192,3.0,7.0,70,0.00,,,-99.99,,2013-11-30 22:42:00,
2013-11-30 16:52:00,39.0,30.0,29.99,SSW,203,1.0,6.0,70,0.00,,,-99.99,,2013-11-30 22:52:00,
2013-11-30 17:22:00,38.0,29.0,30.01,SSW,204,0.0,1.0,71,0.00,,,-99.99,,2013-11-30 23:22:00,
2013-11-30 17:42:00,37.0,28.0,30.01,SSW,204,0.0,1.0,71,0.00,,,-99.99,,2013-11-30 23:42:00,
2013-11-30 17:53:00,37.0,28.0,30.02,SSW,205,0.0,2.0,70,0.00,,,-99.99,,2013-11-30 23:53:00,
2013-11-30 18:11:00,37.0,28.0,30.01,SSW,205,0.0,1.0,70,0.00,,,-99.99,,2013-12-01 00:11:00,
2013-11-30 18:21:00,37.0,28.0,30.02,SSW,205,0.0,1.0,70,0.00,,,-99.99,,2013-12-01 00:21:00,
2013-11-30 18:42:00,36.0,27.0,30.02,SSW,205,0.0,0.0,70,0.00,,,-99.99,,2013-12-01 00:42:00,
2013-11-30 18:52:00,36.0,27.0,30.02,SSW,205,0.0,0.0,69,0.00,,,-99.99,,2013-12-01 00:52:00,
2013-11-30 19:21:00,34.0,25.0,30.02,SSW,205,0.0,0.0,68,0.00,,,-99.99,,2013-12-01 01:21:00,
2013-11-30 19:42:00,33.0,23.0,30.03,SSW,205,0.0,0.0,67,0.00,,,-99.99,,2013-12-01 01:42:00,
2013-11-30 19:52:00,33.0,23.0,30.03,SSW,205,0.0,0.0,66,0.00,,,-99.99,,2013-12-01 01:52:00,
2013-11-30 20:21:00,33.0,22.0,30.02,SSW,205,0.0,0.0,63,0.00,,,-99.99,,2013-12-01 02:21:00,
2013-11-30 20:52:00,34.0,23.0,30.02,SSW,205,0.0,0.0,64,0.00,,,-99.99,,2013-12-01 02:52:00,
2013-11-30 21:21:00,35.0,25.0,30.03,SSW,209,0.0,2.0,67,0.00,,,-99.99,,2013-12-01 03:21:00,
2013-11-30 21:43:00,36.0,26.0,30.03,SW,236,0.0,5.0,68,0.00,,,-99.99,,2013-12-01 03:43:00,
2013-11-30 21:53:00,36.0,26.0,30.02,West,262,0.0,5.0,68,0.00,,,-99.99,,2013-12-01 03:53:00,
2013-11-30 22:02:00,-999.0,-99.9,30.03,WSW,256,0.0,1.0,-999,0.00,,,-99.99,,2013-12-01 04:02:00,
2013-11-30 22:22:00,35.0,26.0,30.03,WSW,257,0.0,2.0,68,0.00,,,-99.99,,2013-12-01 04:22:00,
2013-11-30 22:52:00,35.0,26.0,30.03,WSW,257,0.0,1.0,68,0.00,,,-99.99,,2013-12-01 04:52:00,
2013-11-30 23:22:00,34.0,24.0,30.03,WSW,257,0.0,1.0,67,0.00,,,-99.99,,2013-12-01 05:22:00,
2013-11-30 23:43:00,34.0,24.0,30.03,WSW,256,0.0,0.0,66,0.00,,,-99.99,,2013-12-01 05:43:00,
2013-11-30 23:53:00,34.0,24.0,30.03,WSW,257,0.0,0.0,66,0.00,,,-99.99,,2013-12-01 05:53:00,